Year,Month,Day,Hour,Minute,Value (Times are PST for barometer in hPa)
2013,09,28,00,00,1007.38
2013,09,28,00,01,1007.32
2013,09,28,00,02,1007.28
2013,09,28,00,03,1007.28
2013,09,28,00,04,1007.32
2013,09,28,00,05,1007.28
2013,09,28,00,06,1007.21
2013,09,28,00,07,1007.18
2013,09,28,00,08,1007.11
2013,09,28,00,09,1007.11
2013,09,28,00,10,1007.08
2013,09,28,00,11,1007.08
2013,09,28,00,12,1007.08
2013,09,28,00,13,1007.04
2013,09,28,00,14,1007.01
2013,09,28,00,15,1007.04
2013,09,28,00,16,1006.98
2013,09,28,00,17,1007.01
2013,09,28,00,18,1007.01
2013,09,28,00,19,1007.01
2013,09,28,00,20,1006.98
2013,09,28,00,21,1006.98
2013,09,28,00,22,1006.91
2013,09,28,00,23,1006.94
2013,09,28,00,24,1006.88
2013,09,28,00,25,1006.81
2013,09,28,00,26,1006.84
2013,09,28,00,27,1006.84
2013,09,28,00,28,1006.81
2013,09,28,00,29,1006.81
2013,09,28,00,30,1006.74
2013,09,28,00,31,1006.77
2013,09,28,00,32,1006.77
2013,09,28,00,33,1006.77
2013,09,28,00,34,1006.74
2013,09,28,00,35,1006.74
2013,09,28,00,36,1006.74
2013,09,28,00,37,1006.71
2013,09,28,00,38,1006.71
2013,09,28,00,39,1006.71
2013,09,28,00,40,1006.71
2013,09,28,00,41,1006.71
2013,09,28,00,42,1006.71
2013,09,28,00,43,1006.67
2013,09,28,00,44,1006.67
2013,09,28,00,45,1006.67
2013,09,28,00,46,1006.64
2013,09,28,00,47,1006.64
2013,09,28,00,48,1006.54
2013,09,28,00,49,1006.50
2013,09,28,00,50,1006.47
2013,09,28,00,51,1006.44
2013,09,28,00,52,1006.40
2013,09,28,00,53,1006.44
2013,09,28,00,54,1006.40
2013,09,28,00,55,1006.40
2013,09,28,00,56,1006.37
2013,09,28,00,57,1006.27
2013,09,28,00,58,1006.20
2013,09,28,00,59,1006.16
2013,09,28,01,00,1006.16
2013,09,28,01,01,1006.16
2013,09,28,01,02,1006.10
2013,09,28,01,03,1006.10
2013,09,28,01,04,1006.10
2013,09,28,01,05,1006.03
2013,09,28,01,06,1006.03
2013,09,28,01,07,1006.03
2013,09,28,01,08,1005.99
2013,09,28,01,09,1005.99
2013,09,28,01,10,1005.93
2013,09,28,01,11,1005.93
2013,09,28,01,12,1005.89
2013,09,28,01,13,1005.86
2013,09,28,01,14,1005.83
2013,09,28,01,15,1005.86
2013,09,28,01,16,1005.86
2013,09,28,01,17,1005.86
2013,09,28,01,18,1005.83
2013,09,28,01,19,1005.76
2013,09,28,01,20,1005.79
2013,09,28,01,21,1005.76
2013,09,28,01,22,1005.76
2013,09,28,01,23,1005.76
2013,09,28,01,24,1005.76
2013,09,28,01,25,1005.69
2013,09,28,01,26,1005.72
2013,09,28,01,27,1005.66
2013,09,28,01,28,1005.66
2013,09,28,01,29,1005.66
2013,09,28,01,30,1005.59
2013,09,28,01,31,1005.59
2013,09,28,01,32,1005.55
2013,09,28,01,33,1005.52
2013,09,28,01,34,1005.55
2013,09,28,01,35,1005.59
2013,09,28,01,36,1005.59
2013,09,28,01,37,1005.59
2013,09,28,01,38,1005.55
2013,09,28,01,39,1005.55
2013,09,28,01,40,1005.52
2013,09,28,01,41,1005.52
2013,09,28,01,42,1005.52
2013,09,28,01,43,1005.52
2013,09,28,01,44,1005.52
2013,09,28,01,45,1005.45
2013,09,28,01,46,1005.45
2013,09,28,01,47,1005.45
2013,09,28,01,48,1005.42
2013,09,28,01,49,1005.49
2013,09,28,01,50,1005.42
2013,09,28,01,51,1005.35
2013,09,28,01,52,1005.39
2013,09,28,01,53,1005.39
2013,09,28,01,54,1005.35
2013,09,28,01,55,1005.35
2013,09,28,01,56,1005.35
2013,09,28,01,57,1005.35
2013,09,28,01,58,1005.35
2013,09,28,01,59,1005.32
2013,09,28,02,00,1005.28
2013,09,28,02,01,1005.28
2013,09,28,02,02,1005.28
2013,09,28,02,03,1005.28
2013,09,28,02,04,1005.22
2013,09,28,02,05,1005.18
2013,09,28,02,06,1005.11
2013,09,28,02,07,1005.11
2013,09,28,02,08,1005.11
2013,09,28,02,09,1005.08
2013,09,28,02,10,1005.11
2013,09,28,02,11,1005.05
2013,09,28,02,12,1005.05
2013,09,28,02,13,1004.98
2013,09,28,02,14,1005.01
2013,09,28,02,15,1004.98
2013,09,28,02,16,1004.98
2013,09,28,02,17,1004.95
2013,09,28,02,18,1004.88
2013,09,28,02,19,1004.88
2013,09,28,02,20,1004.84
2013,09,28,02,21,1004.88
2013,09,28,02,22,1004.78
2013,09,28,02,23,1004.81
2013,09,28,02,24,1004.78
2013,09,28,02,25,1004.84
2013,09,28,02,26,1004.84
2013,09,28,02,27,1004.81
2013,09,28,02,28,1004.78
2013,09,28,02,29,1004.81
2013,09,28,02,30,1004.84
2013,09,28,02,31,1004.81
2013,09,28,02,32,1004.78
2013,09,28,02,33,1004.78
2013,09,28,02,34,1004.71
2013,09,28,02,35,1004.74
2013,09,28,02,36,1004.74
2013,09,28,02,37,1004.67
2013,09,28,02,38,1004.67
2013,09,28,02,39,1004.71
2013,09,28,02,40,1004.67
2013,09,28,02,41,1004.67
2013,09,28,02,42,1004.64
2013,09,28,02,43,1004.57
2013,09,28,02,44,1004.57
2013,09,28,02,45,1004.57
2013,09,28,02,46,1004.57
2013,09,28,02,47,1004.57
2013,09,28,02,48,1004.57
2013,09,28,02,49,1004.57
2013,09,28,02,50,1004.50
2013,09,28,02,51,1004.50
2013,09,28,02,52,1004.50
2013,09,28,02,53,1004.47
2013,09,28,02,54,1004.40
2013,09,28,02,55,1004.44
2013,09,28,02,56,1004.44
2013,09,28,02,57,1004.37
2013,09,28,02,58,1004.37
2013,09,28,02,59,1004.34
2013,09,28,03,00,1004.27
2013,09,28,03,01,1004.27
2013,09,28,03,02,1004.20
2013,09,28,03,03,1004.20
2013,09,28,03,04,1004.13
2013,09,28,03,05,1004.10
2013,09,28,03,06,1004.03
2013,09,28,03,07,1004.00
2013,09,28,03,08,1003.96
2013,09,28,03,09,1003.90
2013,09,28,03,10,1003.86
2013,09,28,03,11,1003.83
2013,09,28,03,12,1003.73
2013,09,28,03,13,1003.69
2013,09,28,03,14,1003.66
2013,09,28,03,15,1003.62
2013,09,28,03,16,1003.59
2013,09,28,03,17,1003.59
2013,09,28,03,18,1003.56
2013,09,28,03,19,1003.49
2013,09,28,03,20,1003.49
2013,09,28,03,21,1003.42
2013,09,28,03,22,1003.35
2013,09,28,03,23,1003.32
2013,09,28,03,24,1003.29
2013,09,28,03,25,1003.29
2013,09,28,03,26,1003.25
2013,09,28,03,27,1003.22
2013,09,28,03,28,1003.18
2013,09,28,03,29,1003.15
2013,09,28,03,30,1003.08
2013,09,28,03,31,1003.08
2013,09,28,03,32,1003.05
2013,09,28,03,33,1003.05
2013,09,28,03,34,1003.01
2013,09,28,03,35,1002.98
2013,09,28,03,36,1002.95
2013,09,28,03,37,1002.91
2013,09,28,03,38,1002.88
2013,09,28,03,39,1002.88
2013,09,28,03,40,1002.88
2013,09,28,03,41,1002.85
2013,09,28,03,42,1002.85
2013,09,28,03,43,1002.81
2013,09,28,03,44,1002.78
2013,09,28,03,45,1002.71
2013,09,28,03,46,1002.71
2013,09,28,03,47,1002.68
2013,09,28,03,48,1002.71
2013,09,28,03,49,1002.71
2013,09,28,03,50,1002.64
2013,09,28,03,51,1002.71
2013,09,28,03,52,1002.64
2013,09,28,03,53,1002.64
2013,09,28,03,54,1002.57
2013,09,28,03,55,1002.61
2013,09,28,03,56,1002.64
2013,09,28,03,57,1002.64
2013,09,28,03,58,1002.57
2013,09,28,03,59,1002.54
2013,09,28,04,00,1002.54
2013,09,28,04,01,1002.57
2013,09,28,04,02,1002.51
2013,09,28,04,03,1002.44
2013,09,28,04,04,1002.41
2013,09,28,04,05,1002.41
2013,09,28,04,06,1002.37
2013,09,28,04,07,1002.37
2013,09,28,04,08,1002.41
2013,09,28,04,09,1002.37
2013,09,28,04,10,1002.34
2013,09,28,04,11,1002.30
2013,09,28,04,12,1002.27
2013,09,28,04,13,1002.24
2013,09,28,04,14,1002.24
2013,09,28,04,15,1002.24
2013,09,28,04,16,1002.20
2013,09,28,04,17,1002.10
2013,09,28,04,18,1002.07
2013,09,28,04,19,1002.03
2013,09,28,04,20,1001.97
2013,09,28,04,21,1001.93
2013,09,28,04,22,1001.90
2013,09,28,04,23,1001.86
2013,09,28,04,24,1001.80
2013,09,28,04,25,1001.76
2013,09,28,04,26,1001.76
2013,09,28,04,27,1001.73
2013,09,28,04,28,1001.69
2013,09,28,04,29,1001.73
2013,09,28,04,30,1001.73
2013,09,28,04,31,1001.69
2013,09,28,04,32,1001.66
2013,09,28,04,33,1001.63
2013,09,28,04,34,1001.56
2013,09,28,04,35,1001.52
2013,09,28,04,36,1001.49
2013,09,28,04,37,1001.42
2013,09,28,04,38,1001.46
2013,09,28,04,39,1001.39
2013,09,28,04,40,1001.39
2013,09,28,04,41,1001.39
2013,09,28,04,42,1001.36
2013,09,28,04,43,1001.36
2013,09,28,04,44,1001.36
2013,09,28,04,45,1001.36
2013,09,28,04,46,1001.36
2013,09,28,04,47,1001.39
2013,09,28,04,48,1001.32
2013,09,28,04,49,1001.32
2013,09,28,04,50,1001.25
2013,09,28,04,51,1001.29
2013,09,28,04,52,1001.25
2013,09,28,04,53,1001.25
2013,09,28,04,54,1001.25
2013,09,28,04,55,1001.25
2013,09,28,04,56,1001.22
2013,09,28,04,57,1001.19
2013,09,28,04,58,1001.15
2013,09,28,04,59,1001.15
2013,09,28,05,00,1001.05
2013,09,28,05,01,1001.02
2013,09,28,05,02,1000.95
2013,09,28,05,03,1000.95
2013,09,28,05,04,1000.88
2013,09,28,05,05,1000.81
2013,09,28,05,06,1000.81
2013,09,28,05,07,1000.75
2013,09,28,05,08,1000.71
2013,09,28,05,09,1000.61
2013,09,28,05,10,1000.61
2013,09,28,05,11,1000.58
2013,09,28,05,12,1000.51
2013,09,28,05,13,1000.51
2013,09,28,05,14,1000.48
2013,09,28,05,15,1000.44
2013,09,28,05,16,1000.41
2013,09,28,05,17,1000.37
2013,09,28,05,18,1000.31
2013,09,28,05,19,1000.27
2013,09,28,05,20,1000.20
2013,09,28,05,21,1000.17
2013,09,28,05,22,1000.17
2013,09,28,05,23,1000.14
2013,09,28,05,24,1000.07
2013,09,28,05,25,1000.03
2013,09,28,05,26,1000.03
2013,09,28,05,27,999.97
2013,09,28,05,28,999.90
2013,09,28,05,29,999.83
2013,09,28,05,30,999.76
2013,09,28,05,31,999.70
2013,09,28,05,32,999.76
2013,09,28,05,33,999.76
2013,09,28,05,34,999.66
2013,09,28,05,35,999.70
2013,09,28,05,36,999.63
2013,09,28,05,37,999.59
2013,09,28,05,38,999.56
2013,09,28,05,39,999.53
2013,09,28,05,40,999.49
2013,09,28,05,41,999.49
2013,09,28,05,42,999.46
2013,09,28,05,43,999.46
2013,09,28,05,44,999.46
2013,09,28,05,45,999.46
2013,09,28,05,46,999.46
2013,09,28,05,47,999.43
2013,09,28,05,48,999.46
2013,09,28,05,49,999.49
2013,09,28,05,50,999.46
2013,09,28,05,51,999.46
2013,09,28,05,52,999.39
2013,09,28,05,53,999.43
2013,09,28,05,54,999.46
2013,09,28,05,55,999.43
2013,09,28,05,56,999.39
2013,09,28,05,57,999.36
2013,09,28,05,58,999.32
2013,09,28,05,59,999.32
2013,09,28,06,00,999.32
2013,09,28,06,01,999.29
2013,09,28,06,02,999.29
2013,09,28,06,03,999.26
2013,09,28,06,04,999.22
2013,09,28,06,05,999.22
2013,09,28,06,06,999.15
2013,09,28,06,07,999.12
2013,09,28,06,08,999.12
2013,09,28,06,09,999.12
2013,09,28,06,10,999.12
2013,09,28,06,11,999.12
2013,09,28,06,12,999.15
2013,09,28,06,13,999.09
2013,09,28,06,14,999.05
2013,09,28,06,15,999.05
2013,09,28,06,16,998.99
2013,09,28,06,17,998.99
2013,09,28,06,18,998.95
2013,09,28,06,19,998.92
2013,09,28,06,20,998.85
2013,09,28,06,21,998.92
2013,09,28,06,22,998.88
2013,09,28,06,23,998.91
2013,09,28,06,24,998.82
2013,09,28,06,25,998.78
2013,09,28,06,26,998.75
2013,09,28,06,27,998.75
2013,09,28,06,28,998.71
2013,09,28,06,29,998.68
2013,09,28,06,30,998.65
2013,09,28,06,31,998.65
2013,09,28,06,32,998.58
2013,09,28,06,33,998.58
2013,09,28,06,34,998.51
2013,09,28,06,35,998.51
2013,09,28,06,36,998.48
2013,09,28,06,37,998.41
2013,09,28,06,38,998.41
2013,09,28,06,39,998.34
2013,09,28,06,40,998.31
2013,09,28,06,41,998.24
2013,09,28,06,42,998.27
2013,09,28,06,43,998.24
2013,09,28,06,44,998.21
2013,09,28,06,45,998.21
2013,09,28,06,46,998.17
2013,09,28,06,47,998.21
2013,09,28,06,48,998.14
2013,09,28,06,49,998.14
2013,09,28,06,50,998.10
2013,09,28,06,51,998.07
2013,09,28,06,52,997.97
2013,09,28,06,53,997.94
2013,09,28,06,54,997.94
2013,09,28,06,55,997.90
2013,09,28,06,56,997.87
2013,09,28,06,57,997.87
2013,09,28,06,58,997.83
2013,09,28,06,59,997.80
2013,09,28,07,00,997.73
2013,09,28,07,01,997.73
2013,09,28,07,02,997.73
2013,09,28,07,03,997.73
2013,09,28,07,04,997.66
2013,09,28,07,05,997.66
2013,09,28,07,06,997.56
2013,09,28,07,07,997.56
2013,09,28,07,08,997.50
2013,09,28,07,09,997.46
2013,09,28,07,10,997.39
2013,09,28,07,11,997.36
2013,09,28,07,12,997.29
2013,09,28,07,13,997.29
2013,09,28,07,14,997.26
2013,09,28,07,15,997.29
2013,09,28,07,16,997.29
2013,09,28,07,17,997.26
2013,09,28,07,18,997.22
2013,09,28,07,19,997.16
2013,09,28,07,20,997.12
2013,09,28,07,21,997.12
2013,09,28,07,22,997.12
2013,09,28,07,23,997.09
2013,09,28,07,24,997.02
2013,09,28,07,25,997.02
2013,09,28,07,26,996.99
2013,09,28,07,27,996.99
2013,09,28,07,28,996.95
2013,09,28,07,29,996.92
2013,09,28,07,30,996.95
2013,09,28,07,31,996.95
2013,09,28,07,32,996.89
2013,09,28,07,33,996.78
2013,09,28,07,34,996.78
2013,09,28,07,35,996.78
2013,09,28,07,36,996.78
2013,09,28,07,37,996.78
2013,09,28,07,38,996.75
2013,09,28,07,39,996.75
2013,09,28,07,40,996.75
2013,09,28,07,41,996.72
2013,09,28,07,42,996.65
2013,09,28,07,43,996.61
2013,09,28,07,44,996.61
2013,09,28,07,45,996.58
2013,09,28,07,46,996.51
2013,09,28,07,47,996.45
2013,09,28,07,48,996.41
2013,09,28,07,49,996.38
2013,09,28,07,50,996.38
2013,09,28,07,51,996.38
2013,09,28,07,52,996.34
2013,09,28,07,53,996.34
2013,09,28,07,54,996.34
2013,09,28,07,55,996.31
2013,09,28,07,56,996.28
2013,09,28,07,57,996.24
2013,09,28,07,58,996.14
2013,09,28,07,59,996.14
2013,09,28,08,00,996.14
2013,09,28,08,01,996.07
2013,09,28,08,02,996.07
2013,09,28,08,03,996.04
2013,09,28,08,04,995.97
2013,09,28,08,05,995.90
2013,09,28,08,06,995.94
2013,09,28,08,07,995.90
2013,09,28,08,08,995.87
2013,09,28,08,09,995.87
2013,09,28,08,10,995.80
2013,09,28,08,11,995.77
2013,09,28,08,12,995.80
2013,09,28,08,13,995.73
2013,09,28,08,14,995.70
2013,09,28,08,15,995.73
2013,09,28,08,16,995.70
2013,09,28,08,17,995.73
2013,09,28,08,18,995.73
2013,09,28,08,19,995.73
2013,09,28,08,20,995.67
2013,09,28,08,21,995.67
2013,09,28,08,22,995.60
2013,09,28,08,23,995.60
2013,09,28,08,24,995.56
2013,09,28,08,25,995.53
2013,09,28,08,26,995.53
2013,09,28,08,27,995.53
2013,09,28,08,28,995.50
2013,09,28,08,29,995.50
2013,09,28,08,30,995.43
2013,09,28,08,31,995.40
2013,09,28,08,32,995.43
2013,09,28,08,33,995.40
2013,09,28,08,34,995.40
2013,09,28,08,35,995.36
2013,09,28,08,36,995.40
2013,09,28,08,37,995.36
2013,09,28,08,38,995.40
2013,09,28,08,39,995.33
2013,09,28,08,40,995.33
2013,09,28,08,41,995.33
2013,09,28,08,42,995.29
2013,09,28,08,43,995.33
2013,09,28,08,44,995.29
2013,09,28,08,45,995.29
2013,09,28,08,46,995.26
2013,09,28,08,47,995.26
2013,09,28,08,48,995.19
2013,09,28,08,49,995.19
2013,09,28,08,50,995.16
2013,09,28,08,51,995.16
2013,09,28,08,52,995.16
2013,09,28,08,53,995.19
2013,09,28,08,54,995.12
2013,09,28,08,55,995.09
2013,09,28,08,56,995.02
2013,09,28,08,57,995.02
2013,09,28,08,58,994.96
2013,09,28,08,59,994.89
2013,09,28,09,00,994.85
2013,09,28,09,01,994.85
2013,09,28,09,02,994.79
2013,09,28,09,03,994.79
2013,09,28,09,04,994.75
2013,09,28,09,05,994.75
2013,09,28,09,06,994.72
2013,09,28,09,07,994.75
2013,09,28,09,08,994.72
2013,09,28,09,09,994.68
2013,09,28,09,10,994.62
2013,09,28,09,11,994.55
2013,09,28,09,12,994.52
2013,09,28,09,13,994.52
2013,09,28,09,14,994.52
2013,09,28,09,15,994.48
2013,09,28,09,16,994.48
2013,09,28,09,17,994.45
2013,09,28,09,18,994.45
2013,09,28,09,19,994.41
2013,09,28,09,20,994.38
2013,09,28,09,21,994.35
2013,09,28,09,22,994.31
2013,09,28,09,23,994.31
2013,09,28,09,24,994.31
2013,09,28,09,25,994.28
2013,09,28,09,26,994.24
2013,09,28,09,27,994.24
2013,09,28,09,28,994.21
2013,09,28,09,29,994.14
2013,09,28,09,30,994.18
2013,09,28,09,31,994.18
2013,09,28,09,32,994.18
2013,09,28,09,33,994.14
2013,09,28,09,34,994.18
2013,09,28,09,35,994.14
2013,09,28,09,36,994.18
2013,09,28,09,37,994.14
2013,09,28,09,38,994.14
2013,09,28,09,39,994.14
2013,09,28,09,40,994.10
2013,09,28,09,41,994.01
2013,09,28,09,42,993.94
2013,09,28,09,43,993.91
2013,09,28,09,44,993.84
2013,09,28,09,45,993.84
2013,09,28,09,46,993.84
2013,09,28,09,47,993.84
2013,09,28,09,48,993.84
2013,09,28,09,49,993.87
2013,09,28,09,50,993.84
2013,09,28,09,51,993.77
2013,09,28,09,52,993.80
2013,09,28,09,53,993.77
2013,09,28,09,54,993.74
2013,09,28,09,55,993.77
2013,09,28,09,56,993.70
2013,09,28,09,57,993.67
2013,09,28,09,58,993.67
2013,09,28,09,59,993.63
2013,09,28,10,00,993.57
2013,09,28,10,01,993.59
2013,09,28,10,02,993.50
2013,09,28,10,03,993.53
2013,09,28,10,04,993.53
2013,09,28,10,05,993.50
2013,09,28,10,06,993.50
2013,09,28,10,07,993.40
2013,09,28,10,08,993.43
2013,09,28,10,09,993.40
2013,09,28,10,10,993.36
2013,09,28,10,11,993.43
2013,09,28,10,12,993.36
2013,09,28,10,13,993.36
2013,09,28,10,14,993.33
2013,09,28,10,15,993.33
2013,09,28,10,16,993.30
2013,09,28,10,17,993.30
2013,09,28,10,18,993.26
2013,09,28,10,19,993.22
2013,09,28,10,20,993.13
2013,09,28,10,21,993.09
2013,09,28,10,22,993.06
2013,09,28,10,23,993.03
2013,09,28,10,24,992.96
2013,09,28,10,25,992.96
2013,09,28,10,26,992.86
2013,09,28,10,27,992.86
2013,09,28,10,28,992.82
2013,09,28,10,29,992.82
2013,09,28,10,30,992.75
2013,09,28,10,31,992.69
2013,09,28,10,32,992.62
2013,09,28,10,33,992.58
2013,09,28,10,34,992.57
2013,09,28,10,35,992.45
2013,09,28,10,36,992.45
2013,09,28,10,37,992.45
2013,09,28,10,38,992.38
2013,09,28,10,39,992.42
2013,09,28,10,40,992.42
2013,09,28,10,41,992.35
2013,09,28,10,42,992.35
2013,09,28,10,43,992.28
2013,09,28,10,44,992.21
2013,09,28,10,45,992.14
2013,09,28,10,46,992.08
2013,09,28,10,47,992.11
2013,09,28,10,48,992.08
2013,09,28,10,49,992.04
2013,09,28,10,50,992.04
2013,09,28,10,51,992.01
2013,09,28,10,52,992.01
2013,09,28,10,53,991.98
2013,09,28,10,54,991.94
2013,09,28,10,55,991.94
2013,09,28,10,56,991.98
2013,09,28,10,57,991.98
2013,09,28,10,58,991.94
2013,09,28,10,59,991.91
2013,09,28,11,00,991.84
2013,09,28,11,01,991.77
2013,09,28,11,02,991.77
2013,09,28,11,03,991.67
2013,09,28,11,04,991.59
2013,09,28,11,05,991.50
2013,09,28,11,06,991.43
2013,09,28,11,07,991.40
2013,09,28,11,08,991.37
2013,09,28,11,09,991.40
2013,09,28,11,10,991.33
2013,09,28,11,11,991.23
2013,09,28,11,12,991.30
2013,09,28,11,13,991.23
2013,09,28,11,14,991.23
2013,09,28,11,15,991.20
2013,09,28,11,16,991.23
2013,09,28,11,17,991.26
2013,09,28,11,18,991.20
2013,09,28,11,19,991.16
2013,09,28,11,20,991.13
2013,09,28,11,21,991.09
2013,09,28,11,22,991.09
2013,09,28,11,23,991.09
2013,09,28,11,24,991.13
2013,09,28,11,25,991.06
2013,09,28,11,26,991.03
2013,09,28,11,27,991.03
2013,09,28,11,28,991.06
2013,09,28,11,29,991.09
2013,09,28,11,30,991.09
2013,09,28,11,31,991.13
2013,09,28,11,32,991.09
2013,09,28,11,33,991.06
2013,09,28,11,34,991.03
2013,09,28,11,35,990.93
2013,09,28,11,36,990.86
2013,09,28,11,37,990.86
2013,09,28,11,38,990.86
2013,09,28,11,39,990.86
2013,09,28,11,40,990.89
2013,09,28,11,41,990.93
2013,09,28,11,42,990.93
2013,09,28,11,43,990.89
2013,09,28,11,44,990.89
2013,09,28,11,45,990.86
2013,09,28,11,46,990.89
2013,09,28,11,47,990.96
2013,09,28,11,48,990.89
2013,09,28,11,49,990.89
2013,09,28,11,50,990.82
2013,09,28,11,51,990.72
2013,09,28,11,52,990.69
2013,09,28,11,53,990.62
2013,09,28,11,54,990.65
2013,09,28,11,55,990.55
2013,09,28,11,56,990.52
2013,09,28,11,57,990.55
2013,09,28,11,58,990.52
2013,09,28,11,59,990.45
2013,09,28,12,00,990.35
2013,09,28,12,01,990.22
2013,09,28,12,02,990.21
2013,09,28,12,03,990.08
2013,09,28,12,04,990.04
2013,09,28,12,05,990.04
2013,09,28,12,06,990.01
2013,09,28,12,07,990.01
2013,09,28,12,08,990.01
2013,09,28,12,09,989.98
2013,09,28,12,10,989.94
2013,09,28,12,11,989.91
2013,09,28,12,12,989.84
2013,09,28,12,13,989.81
2013,09,28,12,14,989.74
2013,09,28,12,15,989.77
2013,09,28,12,16,989.74
2013,09,28,12,17,989.71
2013,09,28,12,18,989.67
2013,09,28,12,19,989.64
2013,09,28,12,20,989.64
2013,09,28,12,21,989.60
2013,09,28,12,22,989.60
2013,09,28,12,23,989.54
2013,09,28,12,24,989.60
2013,09,28,12,25,989.57
2013,09,28,12,26,989.50
2013,09,28,12,27,989.54
2013,09,28,12,28,989.50
2013,09,28,12,29,989.50
2013,09,28,12,30,989.50
2013,09,28,12,31,989.47
2013,09,28,12,32,989.47
2013,09,28,12,33,989.40
2013,09,28,12,34,989.33
2013,09,28,12,35,989.27
2013,09,28,12,36,989.30
2013,09,28,12,37,989.33
2013,09,28,12,38,989.27
2013,09,28,12,39,989.30
2013,09,28,12,40,989.27
2013,09,28,12,41,989.23
2013,09,28,12,42,989.27
2013,09,28,12,43,989.27
2013,09,28,12,44,989.23
2013,09,28,12,45,989.23
2013,09,28,12,46,989.20
2013,09,28,12,47,989.13
2013,09,28,12,48,989.10
2013,09,28,12,49,989.10
2013,09,28,12,50,989.10
2013,09,28,12,51,989.03
2013,09,28,12,52,989.03
2013,09,28,12,53,989.00
2013,09,28,12,54,988.93
2013,09,28,12,55,988.89
2013,09,28,12,56,988.89
2013,09,28,12,57,988.83
2013,09,28,12,58,988.79
2013,09,28,12,59,988.72
2013,09,28,13,00,988.69
2013,09,28,13,01,988.69
2013,09,28,13,02,988.66
2013,09,28,13,03,988.55
2013,09,28,13,04,988.55
2013,09,28,13,05,988.55
2013,09,28,13,06,988.52
2013,09,28,13,07,988.45
2013,09,28,13,08,988.35
2013,09,28,13,09,988.32
2013,09,28,13,10,988.22
2013,09,28,13,11,988.18
2013,09,28,13,12,988.22
2013,09,28,13,13,988.15
2013,09,28,13,14,988.11
2013,09,28,13,15,988.05
2013,09,28,13,16,988.01
2013,09,28,13,17,987.98
2013,09,28,13,18,987.95
2013,09,28,13,19,987.95
2013,09,28,13,20,987.95
2013,09,28,13,21,987.95
2013,09,28,13,22,987.91
2013,09,28,13,23,987.88
2013,09,28,13,24,987.81
2013,09,28,13,25,987.78
2013,09,28,13,26,987.64
2013,09,28,13,27,987.64
2013,09,28,13,28,987.54
2013,09,28,13,29,987.57
2013,09,28,13,30,987.54
2013,09,28,13,31,987.47
2013,09,28,13,32,987.51
2013,09,28,13,33,987.40
2013,09,28,13,34,987.47
2013,09,28,13,35,987.47
2013,09,28,13,36,987.51
2013,09,28,13,37,987.47
2013,09,28,13,38,987.44
2013,09,28,13,39,987.44
2013,09,28,13,40,987.37
2013,09,28,13,41,987.44
2013,09,28,13,42,987.40
2013,09,28,13,43,987.44
2013,09,28,13,44,987.44
2013,09,28,13,45,987.37
2013,09,28,13,46,987.37
2013,09,28,13,47,987.37
2013,09,28,13,48,987.34
2013,09,28,13,49,987.34
2013,09,28,13,50,987.27
2013,09,28,13,51,987.34
2013,09,28,13,52,987.34
2013,09,28,13,53,987.27
2013,09,28,13,54,987.37
2013,09,28,13,55,987.34
2013,09,28,13,56,987.23
2013,09,28,13,57,987.34
2013,09,28,13,58,987.27
2013,09,28,13,59,987.34
2013,09,28,14,00,987.37
2013,09,28,14,01,987.34
2013,09,28,14,02,987.37
2013,09,28,14,03,987.34
2013,09,28,14,04,987.44
2013,09,28,14,05,987.40
2013,09,28,14,06,987.38
2013,09,28,14,07,987.47
2013,09,28,14,08,987.51
2013,09,28,14,09,987.57
2013,09,28,14,10,987.61
2013,09,28,14,11,987.71
2013,09,28,14,12,987.64
2013,09,28,14,13,987.67
2013,09,28,14,14,987.61
2013,09,28,14,15,987.57
2013,09,28,14,16,987.57
2013,09,28,14,17,987.61
2013,09,28,14,18,987.61
2013,09,28,14,19,987.71
2013,09,28,14,20,987.78
2013,09,28,14,21,987.84
2013,09,28,14,22,987.88
2013,09,28,14,23,987.84
2013,09,28,14,24,987.78
2013,09,28,14,25,987.78
2013,09,28,14,26,987.88
2013,09,28,14,27,987.98
2013,09,28,14,28,987.98
2013,09,28,14,29,987.91
2013,09,28,14,30,987.88
2013,09,28,14,31,987.91
2013,09,28,14,32,987.98
2013,09,28,14,33,988.08
2013,09,28,14,34,988.08
2013,09,28,14,35,988.01
2013,09,28,14,36,988.05
2013,09,28,14,37,988.05
2013,09,28,14,38,988.01
2013,09,28,14,39,988.01
2013,09,28,14,40,987.98
2013,09,28,14,41,988.01
2013,09,28,14,42,988.08
2013,09,28,14,43,988.08
2013,09,28,14,44,988.15
2013,09,28,14,45,988.11
2013,09,28,14,46,988.11
2013,09,28,14,47,988.15
2013,09,28,14,48,988.22
2013,09,28,14,49,988.26
2013,09,28,14,50,988.39
2013,09,28,14,51,988.45
2013,09,28,14,52,988.49
2013,09,28,14,53,988.55
2013,09,28,14,54,988.59
2013,09,28,14,55,988.55
2013,09,28,14,56,988.62
2013,09,28,14,57,988.62
2013,09,28,14,58,988.59
2013,09,28,14,59,988.52
2013,09,28,15,00,988.59
2013,09,28,15,01,988.55
2013,09,28,15,02,988.59
2013,09,28,15,03,988.49
2013,09,28,15,04,988.42
2013,09,28,15,05,988.46
2013,09,28,15,06,988.55
2013,09,28,15,07,988.55
2013,09,28,15,08,988.62
2013,09,28,15,09,988.62
2013,09,28,15,10,988.56
2013,09,28,15,11,988.72
2013,09,28,15,12,988.79
2013,09,28,15,13,988.79
2013,09,28,15,14,988.89
2013,09,28,15,15,988.93
2013,09,28,15,16,988.93
2013,09,28,15,17,989.03
2013,09,28,15,18,989.10
2013,09,28,15,19,989.13
2013,09,28,15,20,989.16
2013,09,28,15,21,989.23
2013,09,28,15,22,989.33
2013,09,28,15,23,989.37
2013,09,28,15,24,989.44
2013,09,28,15,25,989.44
2013,09,28,15,26,989.44
2013,09,28,15,27,989.44
2013,09,28,15,28,989.44
2013,09,28,15,29,989.47
2013,09,28,15,30,989.54
2013,09,28,15,31,989.57
2013,09,28,15,32,989.57
2013,09,28,15,33,989.54
2013,09,28,15,34,989.54
2013,09,28,15,35,989.60
2013,09,28,15,36,989.64
2013,09,28,15,37,989.67
2013,09,28,15,38,989.64
2013,09,28,15,39,989.64
2013,09,28,15,40,989.72
2013,09,28,15,41,989.81
2013,09,28,15,42,989.88
2013,09,28,15,43,989.88
2013,09,28,15,44,989.84
2013,09,28,15,45,989.88
2013,09,28,15,46,989.88
2013,09,28,15,47,989.88
2013,09,28,15,48,989.88
2013,09,28,15,49,989.84
2013,09,28,15,50,989.94
2013,09,28,15,51,989.94
2013,09,28,15,52,989.98
2013,09,28,15,53,990.04
2013,09,28,15,54,989.98
2013,09,28,15,55,989.98
2013,09,28,15,56,989.94
2013,09,28,15,57,989.94
2013,09,28,15,58,989.94
2013,09,28,15,59,990.01
2013,09,28,16,00,990.11
2013,09,28,16,01,990.15
2013,09,28,16,02,990.15
2013,09,28,16,03,990.18
2013,09,28,16,04,990.17
2013,09,28,16,05,990.08
2013,09,28,16,06,990.11
2013,09,28,16,07,990.11
2013,09,28,16,08,990.15
2013,09,28,16,09,990.15
2013,09,28,16,10,990.18
2013,09,28,16,11,990.18
2013,09,28,16,12,990.18
2013,09,28,16,13,990.18
2013,09,28,16,14,990.18
2013,09,28,16,15,990.21
2013,09,28,16,16,990.21
2013,09,28,16,17,990.28
2013,09,28,16,18,990.28
2013,09,28,16,19,990.28
2013,09,28,16,20,990.32
2013,09,28,16,21,990.35
2013,09,28,16,22,990.35